Regional Weather Roundup
Issued by NWS Sterling, VA

Home | Current Version | Previous Version | Text Only | Print | Product List | Glossary On
Versions: 1 2 3 4 5 6 7 8 9 10 11 12 13 14 15 16 17 18 19 20 21 22 23 24 25 26 27 28
000
ASUS41 KLWX 290910
RWRLWX

REGIONAL WEATHER ROUNDUP
NATIONAL WEATHER SERVICE BALTIMORE MD/WASHINGTON DC
500 AM EDT FRI APR 29 2016

Note: "FAIR" indicates few or no clouds below 12,000 feet
with no significant weather and/or obstructions to visibility.
 TC=TEMPERATURE CELSIUS

 * =Non NWS site. Station does not report precipitation (e.g. rain,
    snow, etc.), thunder, or fog.

DCZ001-MDZ009-015-VAZ040>042-051-053>054-291000-
WASHINGTON METRO

CITY           SKY/WX    TMP DP  RH WIND       PRES   REMARKS
WASHINGTON NAT CLOUDY    48  46  93 E7        30.02R FOG
DULLES         CLOUDY    46  44  93 NE5       30.01R FOG
ANDREWS AFB    CLOUDY    46  45  96 NE5       30.00R FOG
FT BELVOIR     CLOUDY    47  46  94 CALM      30.01S
QUANTICO       CLOUDY    50  47  89 E10       30.02R
COLLEGE PARK*  CLOUDY    46  45  93 NE3       30.01S
LEESBURG*      LGT RAIN  46  46 100 CALM      30.02R
MANASSAS*      CLOUDY    46  46 100 CALM      30.01S
GAITHERSBURG*  CLOUDY    45  41  87 CALM      30.05R

$$

MDZ006>007-011-014-291000-
BALTIMORE METRO

CITY           SKY/WX    TMP DP  RH WIND       PRES   REMARKS
BWI AIRPORT    DRIZZLE   46  44  93 NE8       30.01R FOG
MD SCIENCE CTR   N/A     47  43  86 MISG      30.03R
MARTIN STATE   CLOUDY    46  45  93 CALM      30.04R FOG
ANNAPOLIS      CLOUDY    48  46  93 MISG      30.00S FOG
FORT MEADE*    CLOUDY    45  43  93 NE3       30.04S

$$

MDZ012-015-019>023-291000-
MARYLAND EASTERN SHORE

CITY           SKY/WX    TMP DP  RH WIND       PRES   REMARKS
OCEAN CITY     CLOUDY    50  49  96 NE12      29.98R FOG
SALISBURY      CLOUDY    49  48  97 NE8       29.98R
CAMBRIDGE*     CLOUDY    46  46 100 NE6       29.99S
EASTON*        CLOUDY   N/A N/A N/A NE7       30.04S FOG

$$

MDZ017>025-291000-
SOUTHERN MARYLAND

CITY           SKY/WX    TMP DP  RH WIND       PRES   REMARKS
PATUXENT RIVER CLOUDY    50  47  89 NE10      29.99R
ST INIGOES     CLOUDY    50  49  96 VRB3      29.98R FOG
LEONARDTOWN*   CLOUDY    48  46  93 CALM      30.01R

$$

MDZ003>005-291000-
NORTH CENTRAL MARYLAND

CITY           SKY/WX    TMP DP  RH WIND       PRES   REMARKS
FREDERICK*     CLOUDY    45  45 100 N3        30.05S FOG
HAGERSTOWN APT CLOUDY    46  43  89 NE5       30.00R FOG
WESTMINSTER*   CLOUDY    45  41  87 E5        30.01S FOG

$$

MDZ501>502-291000-
WESTERN MARYLAND

CITY           SKY/WX    TMP DP  RH WIND       PRES   REMARKS
OAKLAND*       FOG       43  43 100 S5        29.93S VSB 1/4
CUMBERLAND*    CLOUDY    46  46 100 CALM      30.03R

$$

VAZ025>031-291000-
SHENANDOAH VALLEY

CITY           SKY/WX    TMP DP  RH WIND       PRES   REMARKS
WINCHESTER*    CLOUDY    45  45 100 E5        30.00R FOG
FRONT ROYAL*   CLOUDY    45  45 100 NE3       29.99R
LURAY*         CLOUDY    46  46 100 NE3       29.98R FOG
NEW MARKET*    CLOUDY    47  47  99 CALM      29.97R
STAUNTON*      CLOUDY    52  52 100 CALM      29.99R FOG
WAYNESBORO*    CLOUDY    51  50  96 MISG      29.97S

$$

WVZ021-048>050-054>055-291000-
EASTERN WEST VIRGINIA PANHANDLE

CITY           SKY/WX    TMP DP  RH WIND       PRES   REMARKS
MARTINSBURG    CLOUDY    45  44  97 E3        30.00S FOG
PETERSBURG*    CLOUDY    49  48  97 N6        29.98R FOG

$$

VAZ036>039-050-291000-
CENTRAL FOOTHILLS

CITY           SKY/WX    TMP DP  RH WIND       PRES   REMARKS
CHARLOTTESVILL CLOUDY    50  48  93 NE3       29.99R FOG
CULPEPER*      DRIZZLE   48  47  99 CALM      30.02R
ORANGE*        LGT RAIN  50  50 100 CALM      30.01S
GORDONSVILLE*  CLOUDY    49  49 100 CALM      30.00R FOG
WARRENTON*     CLOUDY    47  43  85 NE3       30.01R HAZE

$$

VAZ055>057-291000-
NORTH AND CENTRAL PIEDMONT

CITY           SKY/WX    TMP DP  RH WIND       PRES   REMARKS
FREDERICKSBRG* CLOUDY    49  49 100 NE3       29.99F
STAFFORD*      CLOUDY    47  46  95 NE3       30.04S FOG

$$

NCZ024-NYZ072-PAZ021-071-VAZ022-071-291000-
OTHER REGIONAL OBSERVATIONS

CITY           SKY/WX    TMP DP  RH WIND       PRES   REMARKS
NEW YORK CITY  CLOUDY    50  33  52 VRB5      30.08S
PHILADELPHIA   CLOUDY    47  41  80 NE10      30.05S
PITTSBURGH     DRZL/FOG  46  44  93 CALM      29.94S VSB 1/2
ROANOKE        CLOUDY    57  57 100 SE5       29.99S FOG
RICHMOND       CLOUDY    50  50 100 N7        29.98R FOG
RALEIGH        CLOUDY    62  60  93 N5        29.94S

$$

ANZ530>537-291000-
MARINE OBSERVATIONS

STATION/POSITION TIME  TEMP    WIND        PRES
                       AIR SEA DIR/SP/G
                 (UTC) (F)     (DEG/KT/KT) (MB)
THOMAS PT LIGHT  0900   48 57   50/ 11/ 13 1017.0F
BALT KEY BRIDGE  0800   47      20/  8/ 10 1016.2S
COVE POINT       0800   49      60/  9/ 12 1015.8R
LEWISETTA        0800   52 60   40/  5/  8 1014.7R
SOLOMONS ISLAND  0800   50 60   40/  5/  7   N/A

$$





USA.gov is the U.S. government's official web portal to all federal, state and local government web resources and services.